Location: Ago
(8.4667°N, 4.4167°E)
Time: 23:06:13
(UTC+00:00)

Daily predictions for brighter satellites

Satellite Brightness Start Highest point End
(mag) Time Altitude Azimuth Time Altitude Azimuth Time Altitude Azimuth
STARLINK-1190 3.6 18:16:02 10° NNW 18:20:10 80° ENE 18:24:17 10° SE
Cosmos 389 Rocket 4.1 18:17:55 10° SSW 18:21:09 39° W 18:24:25 10° NNW
CZ-2C R/B 4.3 18:18:57 10° ENE 18:21:18 13° E 18:23:37 10° SE
Cosmos 2251 Rocket 3.8 18:18:02 10° NNW 18:23:14 73° WSW 18:28:30 10° S
Ariane H10+ 4.1 18:23:04 10° SSW 18:24:31 12° S 18:25:46 10° SSE
STARLINK-1129 3.6 18:21:01 10° NW 18:25:08 88° SW 18:29:16 10° SSE
CREW DRAGON DEMO-1 DEB 3.1 18:24:01 10° NNW 18:27:02 53° NE 18:30:03 10° SE
STARLINK-1134 3.8 18:25:59 10° NW 18:30:06 76° SW 18:34:13 10° SSE
Tsikada Rocket 4.0 18:24:30 10° S 18:30:39 64° E 18:36:43 10° NNE
Okean 1-7 2.9 18:26:22 10° S 18:30:39 84° E 18:34:53 10° N
Cosmos 1452 Rocket 3.5 18:25:54 10° S 18:31:10 86° E 18:36:26 10° NNE
Palapa 6 Rocket 3.6 18:30:28 10° SW 18:33:54 31° SSE 18:37:42 10° E
Cosmos 407 Rocket 4.5 18:29:42 10° NNE 18:34:15 29° ENE 18:38:40 10° SE
STARLINK-1135 4.0 18:31:00 10° NW 18:35:04 64° WSW 18:39:10 10° SSE
Cosmos 2297 3.7 18:30:34 10° S 18:36:06 59° ESE 18:41:38 10° NNE
STARLINK-1362 4.4 18:33:42 10° S 18:37:08 27° ESE 18:40:35 10° ENE
DELTA-4 R/B 3.8 18:34:13 10° SW 18:37:56 23° S 18:40:01 14° ESE
STARLINK-1141 4.2 18:36:01 10° NW 18:40:02 55° WSW 18:44:05 10° SSE
Meteor 2-4 Rocket 3.9 18:36:05 10° SSE 18:41:14 46° E 18:46:19 10° NNE
Cosmos 2221 Rocket 4.5 18:37:25 10° SSE 18:41:18 29° E 18:45:12 10° NNE
Meteor 1-4 Rocket 2.5 18:37:54 10° S 18:41:21 77° W 18:44:46 10° N
STARLINK-1373 4.3 18:37:55 10° S 18:41:31 31° ESE 18:45:07 10° ENE
Cosmos 2369 Rocket 3.7 18:40:17 12° SE 18:42:31 14° ESE 18:45:28 10° ENE
GPS 2-18 Rocket1 3.6 18:40:58 10° W 18:44:46 51° SSW 18:47:37 17° SE
STARLINK-1140 4.5 18:41:03 10° NW 18:45:00 47° WSW 18:48:59 10° SSE
Cosmos 1908 Rocket 3.9 18:40:59 10° NNE 18:45:14 44° E 18:49:29 10° SSE
Ariane H10-3 3.5 18:41:29 10° WSW 18:45:55 53° S 19:02:53 15° ESE
STARLINK-1390 4.1 18:42:25 10° S 18:46:07 35° ESE 18:49:49 10° ENE
Cosmos 44 Rocket 4.4 18:44:27 10° NW 18:49:14 45° WSW 18:54:06 10° S
Cosmos 1743 2.9 18:47:33 10° N 18:51:13 46° E 18:54:19 14° SSE
STARLINK-1365 3.9 18:47:43 10° SSW 18:51:36 43° SE 18:55:29 10° NE
COSMOS 2406 4.1 18:49:31 10° NNE 18:54:25 29° ENE 18:57:14 20° ESE
STARLINK-1320 2.7 18:52:35 10° SSW 18:55:40 87° SE 18:58:46 10° NE
STARLINK-1322 2.7 18:52:55 10° SSW 18:56:01 88° ESE 18:59:06 10° NE
STARLINK-1324 2.7 18:53:15 10° SW 18:56:20 89° E 18:59:25 10° NE
STARLINK-1294 2.7 18:53:36 10° SW 18:56:40 90° ENE 18:59:43 10° NE
STARLINK-1261 2.8 18:53:56 10° SW 18:57:01 89° WNW 19:00:07 10° NE
STARLINK-1325 2.8 18:54:16 10° SW 18:57:22 88° WNW 19:00:28 10° NE
STARLINK-1333 2.8 18:54:40 10° SW 18:57:45 86° WNW 19:00:50 10° NNE
STARLINK-1334 2.8 18:54:56 10° SW 18:58:02 85° NW 19:01:07 10° NNE
STARLINK-1326 2.8 18:55:16 10° SW 18:58:22 84° NW 19:01:26 10° NNE
STARLINK-1323 2.8 18:55:38 10° SW 18:58:44 83° NW 19:01:49 10° NNE
STARLINK-1349 2.8 18:55:55 10° SW 18:59:01 82° NW 19:02:06 10° NNE
STARLINK-1336 2.9 18:56:16 10° SW 18:59:21 81° NW 19:02:26 10° NNE
STARLINK-1331 2.9 18:56:38 10° SW 18:59:44 80° NW 19:02:49 10° NNE
STARLINK-1344 2.9 18:56:57 10° SW 19:00:03 78° NW 19:03:08 10° NNE
STARLINK-1343 2.9 18:57:19 10° SW 19:00:24 77° NW 19:03:30 10° NNE
STARLINK-1346 2.9 18:57:38 10° SW 19:00:42 76° NW 19:03:47 10° NNE
Okean 3 3.4 18:56:47 10° S 19:01:01 62° E 19:05:15 10° NNE
STARLINK-1328 3.0 18:58:02 10° SW 19:01:07 75° NW 19:04:12 10° NNE
CZ-2C R/B 4.3 18:57:10 10° NE 19:01:22 34° ESE 19:04:45 15° SSE
STARLINK-1354 3.0 18:58:19 10° SW 19:01:25 74° NW 19:04:30 10° NNE
Aureole 2 Rocket 3.2 18:58:22 10° SSW 19:01:34 49° WNW 19:04:36 10° N
STARLINK-1347 3.0 18:58:37 10° SW 19:01:42 73° NW 19:04:47 10° NNE
Hubble Space Telescope 1.3 18:57:45 10° NW 19:01:46 48° NNE 19:03:49 25° E
STARLINK-1357 3.0 18:59:02 10° SW 19:02:07 72° WNW 19:05:12 10° NNE
YAOGAN 1 3.2 18:57:57 10° S 19:02:10 55° W 19:06:23 10° NNW
STARLINK-1335 3.1 18:59:20 10° SW 19:02:25 71° NW 19:05:30 10° NNE
STARLINK-1327 3.1 18:59:41 10° SW 19:02:46 70° NW 19:05:50 10° NNE
STARLINK-1340 3.1 19:00:00 10° SW 19:03:04 69° NW 19:06:09 10° NNE
STARLINK-1338 3.4 18:59:19 10° SSW 19:03:14 62° SE 19:07:08 10° NE
STARLINK-1356 3.1 19:00:22 10° SW 19:03:27 68° NW 19:06:32 10° NNE
STARLINK-1345 3.2 19:00:41 10° SW 19:03:46 67° NW 19:06:50 10° NNE
STARLINK-1355 3.2 19:01:02 10° SW 19:04:06 66° NW 19:07:10 10° NNE
STARLINK-1321 3.2 19:01:23 10° SW 19:04:27 65° NW 19:07:31 10° NNE
SJ-11-01 4.5 19:01:38 19° SSE 19:04:49 50° ENE 19:09:21 10° N
STARLINK-1358 3.3 19:01:46 10° SW 19:04:50 64° NW 19:07:54 10° NNE
STARLINK-1332 3.3 19:02:03 10° SW 19:05:07 63° NW 19:08:11 10° NNE
STARLINK-1348 3.3 19:02:23 10° SW 19:05:27 62° NW 19:08:31 10° NNE
STARLINK-1330 3.3 19:02:44 10° SW 19:05:47 61° NW 19:08:52 10° NNE
STARLINK-1363 3.4 19:03:04 10° SW 19:06:07 60° NW 19:09:10 10° NNE
STARLINK-1337 3.4 19:03:26 10° SW 19:06:29 59° NW 19:09:33 10° NNE
STARLINK-1342 3.4 19:03:46 10° SW 19:06:49 58° NW 19:09:52 10° NNE
STARLINK-1364 3.5 19:04:06 10° SW 19:07:09 58° NW 19:10:12 10° NNE
STARLINK-1376 3.5 19:04:26 10° SW 19:07:29 57° NW 19:10:32 10° NNE
STARLINK-1360 3.5 19:04:47 10° SW 19:07:50 56° NW 19:10:52 10° NNE
Aureole 1 Rocket 4.4 19:01:33 10° N 19:08:01 59° ENE 19:14:23 17° SSE
STARLINK-1361 3.5 19:05:08 10° SW 19:08:10 55° NW 19:11:12 10° NNE
Cosmos 1190 Rocket 4.1 19:03:14 10° N 19:08:22 56° ENE 19:11:26 24° SSE
STARLINK-1367 3.6 19:05:27 10° SW 19:08:28 54° NW 19:11:28 10° NNE
Ariane Rocket 3.8 19:06:59 26° ESE 19:08:36 31° ENE 19:13:02 10° NNE
STARLINK-1366 3.6 19:05:47 10° SW 19:08:49 53° NW 19:11:51 10° NNE
STARLINK-1371 3.3 19:07:40 10° SSW 19:11:38 81° SE 19:15:36 10° NE
Cosmos 1110 Rocket 3.8 19:06:46 10° S 19:11:57 75° ESE 19:17:07 10° NNE
STARLINK-1076 4.4 19:08:30 10° NNW 19:12:17 35° NE 19:13:09 31° E
SEDSat Delta rocket 4.3 19:08:05 10° NW 19:14:32 58° NNE 19:18:08 28° E
Sich 1 Rocket 4.4 19:10:37 10° NNE 19:14:35 30° E 19:14:40 30° E
Cosmos 304 Rocket 4.3 19:10:30 10° SSW 19:15:12 61° WNW 19:19:54 10° N
STARLINK-1341 3.4 19:11:51 10° SW 19:15:50 88° NW 19:19:50 10° NE
Meteor 2-9 Rocket 4.4 19:10:54 10° NNE 19:15:56 44° E 19:17:49 32° SE
Ariane H10 4.2 19:11:59 10° W 19:16:21 66° S 19:27:11 23° ESE
STARLINK-1092 4.2 19:13:22 10° NNW 19:17:15 40° NE 19:17:56 37° E
Iridium 51 4.1 19:16:36 20° S 19:19:23 83° E 19:23:07 10° N
CSL-04 Rocket 4.2 19:14:02 10° S 19:19:24 61° WSW 19:24:51 10° NNW
Centaur AC-119 3.1 19:07:25 10° WNW 19:19:58 79° SSW 19:21:30 40° SE
STARLINK-1374 3.6 19:16:08 10° SW 19:20:07 77° NW 19:24:05 10° NNE
Cosmos 1674 Rocket 4.4 19:22:43 32° ENE 19:22:43 32° ENE 19:25:52 10° NNE
STARLINK-1080 3.9 19:18:16 10° NNW 19:22:14 47° NE 19:22:44 44° ENE
CZ-2C R/B 3.1 19:20:41 26° SSE 19:23:45 71° ENE 19:29:20 10° N
Cosmos 1331 Rocket 3.9 19:18:40 10° SSW 19:23:48 90° ESE 19:28:57 10° NNE
FALCON 9 R/B 3.7 19:21:30 10° W 19:24:07 15° NW 19:25:53 10° N
Cosmos 2034 Rocket 4.3 19:18:12 10° NNW 19:24:17 65° W 19:30:24 10° S
STARLINK-1339 3.8 19:20:23 10° SW 19:24:22 67° NW 19:28:20 10° NNE
Centaur AC-42 3.1 19:20:07 10° W 19:24:25 57° SSW 19:30:04 28° SE
ASTEX 1 3.2 19:22:35 28° SSE 19:25:11 74° E 19:30:04 10° N
MOS 1 Rocket 3.2 19:22:32 10° N 19:26:49 75° W 19:31:16 10° SSW
STARLINK-1090 3.7 19:23:10 10° NNW 19:27:12 55° NE 19:27:31 53° ENE
STARLINK-1377 4.1 19:24:46 10° SW 19:28:41 58° NW 19:32:36 10° NNE
Cosmos 1954 Rocket 4.2 19:24:26 10° N 19:29:32 48° ENE 19:30:20 45° ESE
SJ-6B 4.4 19:32:08 22° NE 19:32:08 22° NE 19:33:51 10° NNE
Spelda 4.2 19:01:18 10° W 19:31:19 57° SSW 19:33:53 37° SE
STARLINK-1089 3.6 19:28:05 10° NNW 19:32:11 64° NE 19:32:17 64° ENE
STARLINK-1353 4.4 19:29:06 10° SW 19:32:58 50° NW 19:36:50 10° NNE
Cosmos 1975 2.7 19:29:39 10° N 19:33:38 88° W 19:34:07 68° S
Fermi 3.8 19:30:35 10° WSW 19:34:42 75° NNW 19:35:22 59° NE
DMSP B5D2-2 4.1 19:29:52 10° N 19:35:06 82° WNW 19:40:20 10° SSW
NOSS 3-4 (A) 3.2 19:29:53 10° SSW 19:35:49 61° ESE 19:41:36 10° NNE
NOSS 3-4 (C) 3.2 19:30:00 10° SSW 19:35:55 60° ESE 19:41:41 10° NE
STARLINK-1107 3.5 19:33:02 10° NNW 19:37:05 75° NE 19:37:05 75° NE
Cosmos 1302 Rocket 4.0 19:38:03 54° E 19:38:03 54° E 19:43:08 10° NNE
STARLINK-1066 3.6 19:38:00 10° NW 19:41:53 79° NNW 19:41:53 79° NNW
ARGOS 3.0 19:41:18 51° SSE 19:42:43 81° ENE 19:48:05 10° N
Cosmos 1544 3.6 19:41:03 10° NNW 19:44:17 54° WNW 19:44:17 54° WNW
IRS-1A Rocket 4.2 19:42:48 47° SSE 19:44:33 79° ENE 19:50:17 10° N
STARLINK-1081 3.8 19:42:56 10° NW 19:46:38 69° WNW 19:46:38 69° WNW
GPS 2-12 Rocket1 4.3 19:43:16 10° NW 19:47:11 29° NNE 19:47:36 28° NNE
H-2A R/B 2.3 19:45:52 37° SSW 19:47:45 63° WSW 19:52:46 10° NNW
Milstar 3 Cent rocket 4.3 19:44:26 10° WNW 19:49:42 32° N 19:58:45 10° NE
Cosmos 1943 Rocket 2.6 19:45:28 10° SSW 19:50:52 60° WNW 19:56:19 10° N
Cosmos 676 Rocket 3.9 19:45:49 10° NNW 19:51:07 88° W 19:51:42 72° S
STARLINK-1070 4.1 19:47:57 10° NW 19:51:27 58° WNW 19:51:27 58° WNW
USA 267 3.7 19:51:39 40° ENE 19:52:32 42° NE 19:58:36 10° NNW
Cosmos 1634 Rocket 3.9 19:48:33 10° N 19:54:52 88° E 19:56:30 53° S
STARLINK-1069 4.5 19:52:58 10° NW 19:56:14 48° WNW 19:56:14 48° WNW
ARIANE 3 DEB 3.6 19:52:16 10° W 19:59:02 62° SW 19:59:02 62° SW
CZ-2C R/B 3.8 19:56:09 10° N 20:01:24 44° WNW 20:06:35 10° SSW
ATLAS 2AS CENTAUR R/B 3.0 19:54:57 10° SSW 20:02:29 77° WNW 20:10:26 10° NNE
SL-08 RB Rocket 4.3 20:06:33 54° NW 20:06:33 54° NW 20:10:11 10° NNW
Centaur Rocket 4.3 20:00:04 10° W 20:07:17 38° NNW 20:07:33 38° NNW
Cosmos 1833 Rocket 3.3 20:17:51 10° NNW 20:22:50 52° W 20:22:50 52° W
ATLAS CENTAUR R/B 4.0 20:27:20 16° N 20:27:20 16° N 20:28:25 10° N
Cosmos 2369 Rocket 3.4 20:21:16 12° SW 20:26:10 39° WNW 20:31:25 10° N
Lacrosse 5 3.4 20:22:51 10° NNW 20:25:25 30° NNW 20:25:25 30° NNW
Cosmos 2082 Rocket 3.4 20:35:32 10° NNW 20:38:59 38° NW 20:38:59 38° NW
